#timestamp,LO_Frequency,Hit,StdDev 
1616547615.9,286046992.3,N
1616547635.7,286047001.2,N
1616547655.6,286046997.6,N
1616547675.4,286047000.1,N
1616547695.2,286047010.4,N
1616547715.1,286047012.7,N
1616547716.0,286047012.7,N
1616547735.8,286047010.9,N
1616547755.7,286047016.9,N
1616547775.5,286047009.3,N
1616547795.3,286047008.0,N
1616547815.2,286047012.0,N
1616547835.0,286047009.3,N
1616547835.9,286047009.3,N
1616547855.8,286047013.1,N
1616547875.6,286047008.7,N
1616547895.4,286047009.1,N
1616547915.3,286047001.0,N
1616547935.1,286046998.5,N
1616547955.8,286047003.8,N
1616547975.7,286047001.0,N
1616547995.5,286046995.8,N
1616548015.4,286046997.1,N
1616548035.2,286046998.6,N
1616548055.0,286047004.4,N
1616548055.9,286047004.4,N
1616548075.8,286047004.7,N
1616548095.6,286047005.9,N
1616548115.5,286047004.1,N
1616548135.3,286047001.4,N
1616548155.1,286046999.3,N
1616548175.9,286047002.1,N
1616548195.7,286047006.5,N
1616548215.5,286047002.6,N
1616548235.4,286047001.0,N
1616548255.2,286047000.4,N
1616548275.1,286046993.7,N
1616548276.0,286046993.7,N
1616548295.8,286046997.5,N
1616548315.6,286047003.8,N
1616548335.5,286046995.8,N
1616548355.3,286046994.6,N
1616548375.2,286046995.4,N
1616548395.9,286046994.1,N
1616548415.7,286046996.8,N
1616548435.6,286047002.1,N
1616548455.4,286047001.6,N
1616548475.2,286046997.1,N
1616548495.1,286047004.4,N
1616548496.0,286047004.4,N
1616548515.8,286047001.9,N
1616548535.7,286046996.5,N
1616548555.5,286046995.0,N
1616548575.3,286046999.2,N
1616548595.2,286046996.6,N
1616548615.0,286047004.0,N
1616548615.9,286047004.0,N
1616548635.8,286047006.6,N
1616548655.6,286047005.1,N
1616548675.4,286047007.9,N
1616548695.3,286047005.1,N
1616548715.1,286047006.4,N
1616548735.8,286047010.5,N
1616548755.7,286047011.2,N
1616548775.5,286047011.4,N
1616548795.4,286047005.4,N
1616548815.2,286047006.2,N
1616548835.0,286047008.9,N
1616548835.9,286047008.9,N
1616548855.8,286047009.7,N
1616548875.6,286047007.1,N
1616548895.4,286047003.6,N
1616548915.3,286047004.6,N
1616548935.1,286047002.3,N
1616548955.9,286046997.0,N
1616548975.7,286046999.0,N
1616548995.6,286047000.5,N
1616549015.4,286047001.7,N
1616549035.2,286046998.5,N
1616549055.1,286047002.0,N
1616549056.0,286047002.0,N
1616549075.8,286047000.2,N
1616549095.6,286047003.8,N
1616549115.5,286047003.9,N
1616549135.3,286047002.7,N
1616549155.2,286047003.8,N
1616549175.0,286047002.3,N
1616549175.9,286047002.3,N
1616549195.8,286047005.1,N
1616549215.6,286047006.3,N
1616549235.4,286047010.4,N
1616549255.3,286047012.4,Y
1616549275.1,286047011.8,P
1616549295.8,286047002.2,N
1616549315.7,286046996.2,N
1616549335.5,286046992.6,N
1616549355.4,286046991.3,N
1616549375.2,286046996.3,N
1616549395.0,286047002.0,N
1616549395.9,286047002.0,N
1616549415.8,286046991.8,N
1616549435.6,286046990.9,N
1616549455.4,286046988.6,N
1616549475.3,286046986.5,N
1616549495.1,286046989.3,N
1616549515.9,286046990.6,N
1616549535.7,286046987.1,N
1616549555.5,286046985.0,N
1616549575.4,286046987.6,N
1616549595.2,286046983.5,N
1616549615.0,286046984.1,N
1616549615.9,286046984.1,N
1616549635.8,286046986.9,N
1616549655.6,286046988.4,N
1616549675.5,286046983.7,N
1616549695.3,286046985.4,N
1616549715.1,286046984.3,N
1616549735.9,286046981.1,N
1616549755.7,286046983.4,N
1616549775.5,286046982.7,N
1616549795.4,286046989.0,N
1616549815.2,286046986.2,N
1616549835.0,286046988.0,N
1616549836.0,286046988.0,N
1616549855.8,286046989.0,N
1616549875.6,286046997.6,N
1616549895.5,286046992.8,N
1616549915.3,286046985.5,N
1616549935.1,286046983.7,Y
1616549955.9,286047003.4,P
1616549975.7,286047005.4,N
1616549995.6,286047003.2,N
1616550015.4,286047000.8,N
1616550035.2,286047002.9,N
1616550055.1,286047005.5,N
1616550056.0,286047005.5,N
1616550075.8,286046997.7,N
1616550095.6,286047003.6,N
1616550115.5,286047007.4,N
1616550135.3,286047003.6,N
1616550155.2,286047004.3,N
1616550175.9,286047004.1,N
1616550195.7,286047005.8,N
1616550215.6,286047002.3,N
1616550235.4,286047004.4,N
1616550255.2,286047007.0,N
1616550275.1,286047011.9,N
1616550276.0,286047011.9,N
1616550295.8,286047006.1,N
1616550315.7,286047009.1,N
1616550335.5,286047006.6,N
1616550355.3,286047007.5,N
1616550375.2,286047005.8,N
1616550395.0,286047005.6,N
1616550395.9,286047005.6,N
1616550415.7,286047000.4,N
1616550435.6,286046999.9,N
1616550455.4,286047002.5,N
1616550475.3,286046995.0,N
1616550495.1,286046999.5,N
1616550515.8,286046999.3,N
1616550535.7,286047002.7,N
1616550555.5,286047006.3,N
1616550575.4,286047007.5,N
1616550595.2,286047004.6,N
1616550615.0,286047005.1,N
1616550615.9,286047005.1,N
1616550635.8,286047005.6,N
1616550655.6,286047001.4,N
1616550675.5,286047002.2,N
1616550695.3,286046996.9,N
1616550715.1,286046998.4,N
1616550735.9,286046998.0,N
1616550755.7,286046991.7,N
1616550775.6,286047002.2,N
1616550795.4,286047001.8,N
1616550815.2,286047002.5,N
1616550835.1,286047006.4,N
1616550836.0,286047006.4,N
1616550855.8,286047007.6,N
1616550875.6,286047000.3,N
1616550895.5,286046997.4,N
1616550915.3,286047001.2,N
1616550935.2,286047004.8,N
1616550955.9,286047012.0,Y
1616550975.7,286047018.0,P
1616550995.6,286047010.5,N
1616551015.4,286047008.9,N
1616551035.3,286047010.9,N
1616551055.1,286047011.2,N
1616551056.0,286047011.2,N
1616551075.8,286047008.6,N
1616551095.7,286047003.4,N
1616551115.5,286046998.4,N
1616551135.3,286047000.3,N
1616551155.2,286047000.3,N
1616551175.0,286047001.0,N
1616551175.9,286047001.0,N
1616551195.8,286046997.1,N
